Point Lay, AK

2:59 PM AKDT on August 19, 2017 (GMT -0800)
Point Lay

Weather History for PPIZ - October, 2012

Change the Weather History Date:

Sunday, October 7, 2012

  Actual Average Record
Temperature  
Mean Temperature 32 °F -  
Max Temperature 35 °F 27 °F 39 °F (2016)
Min Temperature 30 °F 20 °F 10 °F (2011)
Degree Days  
Heating Degree Days 32    
Moisture  
Dew Point 32 °F    
Average Humidity 94    
Maximum Humidity 100    
Minimum Humidity 86    
Precipitation  
Precipitation 0.00 in - - ()
Sea Level Pressure  
Sea Level Pressure 30.13 in    
Wind  
Wind Speed - (North)    
Max Wind Speed -    
Max Gust Speed -    
Visibility 4 miles    
Events Snow    
Averages and records for this station are not official NWS values.
T = Trace of Precipitation, MM = Missing Value Source: NWS Daily Summary

Daily Weather History Graph

Daily Weather History Graph

Search for Another Location

Airport or City:

Trip Planner

Search our weather history database for the weather conditions in past years. The results will help you decide how hot, cold, wet, or windy it might be!

Date:

Astronomy

Oct. 07, 2012 Rise Set
Actual Time 9:34 AM AKDT 7:43 PM AKDT
Civil Twilight 8:33 AM AKDT 8:43 PM AKDT
Nautical Twilight 7:23 AM AKDT 9:53 PM AKDT
Astronomical Twilight 6:05 AM AKDT 11:09 PM AKDT
Moon 10:18 PM AKDT (10/7) 7:13 PM AKDT (10/7)
Length of Visible Light 12h 09m
Length of Day
10h 09m
Waning Gibbous, 55% of the Moon is Illuminated
Oct 7
Waning Gibbous
Oct 7
Last Quarter
Oct 15
New
Oct 21
First Quarter
Oct 29
Full

Hourly Weather History & Observations

Time (AKDT) Temp. Dew Point Humidity Pressure Visibility Wind Dir Wind Speed Gust Speed Precip Events Conditions
12:18 AM 33.8 °F 30.2 °F 87% 29.87 in 10.0 mi North - - 0.00 in   Mostly Cloudy
12:56 AM 33.8 °F 30.2 °F 87% 29.87 in 10.0 mi North - - N/A   Mostly Cloudy
1:56 AM 34.9 °F 31.1 °F 86% 29.89 in 10.0 mi North - - N/A   Overcast
2:56 AM 34.9 °F 31.1 °F 86% 29.90 in 10.0 mi North - - N/A   Overcast
3:56 AM 33.8 °F 30.2 °F 87% 29.90 in 10.0 mi North - - N/A   Overcast
4:56 AM 34.9 °F 32.0 °F 89% 29.91 in 10.0 mi North - - 0.00 in Snow Light Snow
5:38 AM 35.6 °F 32.0 °F 87% 29.91 in 8.0 mi North - - 0.00 in Snow Light Snow
5:56 AM 34.9 °F 32.0 °F 89% 29.92 in 10.0 mi North - - 0.00 in   Overcast
6:36 AM 35.6 °F 32.0 °F 87% 29.92 in 5.0 mi North - - N/A   Overcast
6:49 AM 35.6 °F 33.8 °F 93% 29.93 in 7.0 mi North - - 0.00 in   Overcast
6:56 AM 35.6 °F 33.8 °F 93% 29.93 in 9.0 mi North - - N/A   Overcast
7:03 AM 35.6 °F 33.8 °F 93% 29.93 in 6.0 mi North - - 0.00 in   Overcast
7:48 AM 35.6 °F 33.8 °F 93% 29.94 in 2.5 mi North - - 0.00 in   Overcast
7:56 AM 34.9 °F 32.9 °F 92% 29.95 in 2.5 mi North - - 0.00 in   Overcast
8:02 AM 35.6 °F 33.8 °F 93% 29.94 in 3.0 mi North - - 0.00 in   Overcast
8:27 AM 35.6 °F 33.8 °F 93% 29.96 in 6.0 mi North - - 0.00 in   Overcast
8:56 AM 34.9 °F 34.0 °F 97% 29.99 in 3.0 mi North - - 0.00 in   Overcast
9:09 AM 35.6 °F 33.8 °F 93% 29.98 in 2.5 mi North - - N/A   Overcast
9:32 AM 35.6 °F 33.8 °F 93% 29.99 in 1.5 mi North - - N/A   Overcast
9:38 AM 35.6 °F 33.8 °F 93% 29.99 in 2.0 mi North - - N/A   Overcast
9:45 AM 35.6 °F 33.8 °F 93% 30.00 in 3.0 mi North - - N/A   Overcast
9:48 AM 35.6 °F 33.8 °F 93% 30.00 in 1.8 mi North - - N/A   Overcast
9:56 AM 34.9 °F 34.0 °F 97% 30.02 in 2.0 mi North - - N/A   Overcast
10:19 AM 35.6 °F 33.8 °F 93% 30.02 in 4.0 mi North - - N/A   Overcast
10:56 AM 34.9 °F 34.0 °F 97% 30.05 in 2.0 mi North - - N/A   Overcast
11:01 AM 35.6 °F 33.8 °F 93% 30.04 in 1.8 mi North - - N/A   Overcast
11:11 AM 35.6 °F 33.8 °F 93% 30.05 in 3.0 mi North - - N/A   Overcast
11:56 AM 34.9 °F 32.9 °F 92% 30.08 in 5.0 mi North - - N/A   Overcast
12:56 PM 34.9 °F 32.9 °F 92% 30.11 in 3.0 mi North - - N/A   Overcast
1:05 PM 35.6 °F 33.8 °F 93% 30.10 in 1.8 mi North - - N/A   Overcast
1:08 PM 33.8 °F 33.8 °F 100% 30.11 in 1.0 mi North - - N/A   Overcast
1:11 PM 33.8 °F 33.8 °F 100% 30.11 in 0.8 mi North - - N/A   Overcast
1:18 PM 33.8 °F 33.8 °F 100% 30.11 in 1.2 mi North - - N/A   Overcast
1:27 PM 33.8 °F 33.8 °F 100% 30.11 in 1.8 mi North - - N/A   Overcast
1:33 PM 33.8 °F 33.8 °F 100% 30.11 in 1.0 mi North - - N/A   Overcast
1:43 PM 33.8 °F 33.8 °F 100% 30.11 in 1.5 mi North - - N/A   Overcast
1:56 PM 34.0 °F 32.9 °F 96% 30.13 in 1.0 mi North - - N/A   Overcast
2:10 PM 33.8 °F 33.8 °F 100% 30.13 in 1.5 mi North - - N/A   Overcast
2:26 PM 33.8 °F 33.8 °F 100% 30.13 in 1.0 mi North - - N/A   Overcast
2:34 PM 33.8 °F 33.8 °F 100% 30.13 in 1.2 mi North - - N/A   Overcast
2:42 PM 33.8 °F 33.8 °F 100% 30.13 in 1.8 mi North - - N/A   Overcast
2:56 PM 34.0 °F 32.9 °F 96% 30.14 in 3.0 mi North - - N/A   Overcast
3:03 PM 33.8 °F 33.8 °F 100% 30.14 in 1.8 mi North - - N/A   Overcast
3:11 PM 33.8 °F 33.8 °F 100% 30.14 in 1.2 mi North - - N/A   Overcast
3:18 PM 33.8 °F 33.8 °F 100% 30.14 in 2.0 mi North - - N/A   Overcast
3:31 PM 33.8 °F 33.8 °F 100% 30.14 in 3.0 mi North - - 0.00 in   Overcast
3:35 PM 33.8 °F 33.8 °F 100% 30.15 in 2.5 mi North - - 0.00 in   Overcast
3:46 PM 33.8 °F 33.8 °F 100% 30.15 in 2.0 mi North - - 0.00 in   Overcast
3:56 PM 33.8 °F 33.8 °F 100% 30.15 in 2.0 mi North - - N/A   Overcast
4:00 PM 33.8 °F 32.0 °F 93% 30.16 in 1.8 mi North - - 0.00 in   Overcast
4:11 PM 33.8 °F 32.0 °F 93% 30.16 in 2.5 mi North - - 0.00 in   Overcast
4:19 PM 33.8 °F 32.0 °F 93% 30.16 in 4.0 mi North - - 0.00 in   Overcast
4:32 PM 33.8 °F 32.0 °F 93% 30.17 in 4.0 mi North - - 0.00 in   Overcast
4:43 PM 33.8 °F 32.0 °F 93% 30.18 in 2.0 mi North - - 0.00 in   Overcast
4:56 PM 32.9 °F 32.0 °F 96% 30.19 in 4.0 mi North - - 0.00 in   Overcast
5:09 PM 33.8 °F 32.0 °F 93% 30.19 in 2.5 mi North - - 0.00 in   Overcast
5:26 PM 33.8 °F 32.0 °F 93% 30.19 in 2.0 mi North - - 0.00 in   Overcast
5:38 PM 33.8 °F 32.0 °F 93% 30.19 in 1.5 mi North - - 0.00 in   Overcast
5:46 PM 33.8 °F 32.0 °F 93% 30.20 in 2.0 mi North - - 0.00 in   Overcast
5:56 PM 32.0 °F 31.1 °F 96% 30.22 in 2.5 mi North - - 0.00 in Snow Light Snow
6:12 PM 33.8 °F 30.2 °F 87% 30.21 in 7.0 mi North - - 0.00 in   Overcast
6:42 PM 32.0 °F 30.2 °F 93% 30.22 in 1.8 mi North - - 0.00 in Snow Light Snow
6:45 PM 32.0 °F 30.2 °F 93% 30.22 in 1.0 mi North - - 0.00 in Snow Light Snow
6:56 PM 32.0 °F 30.2 °F 93% 30.22 in 7.0 mi North - - N/A Snow Light Snow
7:03 PM 32.0 °F 30.2 °F 93% 30.23 in 8.0 mi North - - 0.00 in Snow Light Snow
7:07 PM 32.0 °F 30.2 °F 93% 30.23 in 10.0 mi North - - 0.00 in   Overcast
7:14 PM 32.0 °F 30.2 °F 93% 30.23 in 10.0 mi North - - 0.00 in Snow Light Snow
7:28 PM 32.0 °F 28.4 °F 87% 30.24 in 3.0 mi North - - 0.00 in Snow Light Snow
7:37 PM 30.2 °F 28.4 °F 93% 30.25 in 1.8 mi North - - 0.00 in Snow Light Snow
7:46 PM 30.2 °F 28.4 °F 93% 30.25 in 2.0 mi North - - 0.00 in Snow Light Snow
7:56 PM 31.1 °F 29.1 °F 92% 30.27 in 4.0 mi North - - 0.00 in Snow Light Snow
8:03 PM 30.2 °F 28.4 °F 93% 30.25 in 3.0 mi North - - 0.00 in Snow Light Snow
8:13 PM 32.0 °F 28.4 °F 87% 30.26 in 3.0 mi North - - 0.00 in Snow Light Snow
8:15 PM 32.0 °F 28.4 °F 87% 30.26 in 2.5 mi North - - 0.00 in Snow Light Snow
8:22 PM 30.2 °F 28.4 °F 93% 30.27 in 3.0 mi North - - 0.00 in Snow Light Snow
8:56 PM 31.1 °F 29.1 °F 92% 30.29 in 3.0 mi North - - 0.00 in Snow Light Snow
9:06 PM 30.2 °F 28.4 °F 93% 30.28 in 3.0 mi North - - 0.00 in Snow Light Snow
9:16 PM 30.2 °F 28.4 °F 93% 30.28 in 2.5 mi North - - 0.00 in Snow Light Snow
9:26 PM 30.2 °F 28.4 °F 93% 30.28 in 1.2 mi North - - 0.00 in Snow Light Snow
9:37 PM 30.2 °F 28.4 °F 93% 30.28 in 2.0 mi North - - 0.00 in Snow Light Snow
9:44 PM 30.2 °F 28.4 °F 93% 30.29 in 4.0 mi North - - 0.00 in Snow Light Snow
9:56 PM 30.2 °F 28.4 °F 93% 30.29 in 5.0 mi North - - N/A Snow Light Snow
9:59 PM 30.2 °F 28.4 °F 93% 30.29 in 7.0 mi North - - 0.00 in Snow Light Snow
10:56 PM 31.1 °F 28.0 °F 88% 30.33 in 6.0 mi North - - 0.00 in Snow Light Snow
11:03 PM 30.2 °F 28.4 °F 93% 30.32 in 2.0 mi North - - 0.00 in Snow Light Snow
11:05 PM 30.2 °F 28.4 °F 93% 30.32 in 1.5 mi North - - 0.00 in Snow Light Snow
11:09 PM 30.2 °F 28.4 °F 93% 30.32 in 1.0 mi North - - 0.00 in Snow Light Snow
11:14 PM 30.2 °F 28.4 °F 93% 30.32 in 1.5 mi North - - 0.00 in Snow Light Snow
11:18 PM 30.2 °F 28.4 °F 93% 30.32 in 3.0 mi North - - 0.00 in Snow Light Snow
11:36 PM 30.2 °F 28.4 °F 93% 30.33 in 3.0 mi North - - 0.00 in Snow Light Snow
11:44 PM 30.2 °F 28.4 °F 93% 30.33 in 1.8 mi North - - 0.00 in Snow Light Snow
11:56 PM 30.0 °F 28.0 °F 92% 30.35 in 3.0 mi North - - 0.00 in Snow Light Snow